Regional Weather Roundup
Issued by NWS

Home | Current Version | Previous Version | Text Only | Print | Product List | Glossary On
Versions: 1 2 3 4 5 6 7 8 9 10 11 12 13 14 15 16 17 18 19 20 21 22 23 24 25 26 27
000
ASUS44 KJAN 202010
RWRMS

MISSISSIPPI HOURLY WEATHER ROUNDUP
NATIONAL WEATHER SERVICE JACKSON MS
300 PM CDT WED SEP 20 2017

NOTE: "FAIR: INDICATES FEW OR NO CLOUDS BELOW 12,000 FEET WITH NO
SIGNIFICANT WEATHER AND/OR OBSTRUCTIONS TO VISIBILITY.

MSZ001>002-007>008-010>013-018>021-025>028-034>036-202100-
NORTHWEST MISSISSIPPI

CITY           SKY/WX    TMP DP  RH WIND       PRES   REMARKS
BATESVILLE     FAIR      89  71  54 S6        29.97F HX  94
CLARKSDALE       N/A     91  73  55 S10       29.95F HX 100
CLEVELAND      MOCLDY    90  71  52 SW7       29.95F HX  96
GREENWOOD      MOSUNNY   90  75  61 SW10      29.96F HX 100
GREENVILLE     SUNNY     89  69  51 S7        29.95F HX  93
OLIVE BRANCH   PTSUNNY  N/A N/A N/A S9        29.96F
OXFORD         FAIR      88  72  58 NW3       29.99F HX  94
TUNICA           N/A     90  73  58 S10       29.96F HX  98
WINONA         MOCLDY    90  71  53 SW3       29.98F HX  96
$$

MSZ003>006-009-014>017-022>024-029>033-037>039-202100-
NORTHEAST MISSISSIPPI

CITY           SKY/WX    TMP DP  RH WIND       PRES   REMARKS
COLUMBUS AFB   MOSUNNY   91  76  61 CALM      29.97F HX 102
STARKVILLE     FAIR      90  72  55 CALM      29.99F HX  96
TUPELO         CLOUDY    91  68  46 VRB3      29.97F HX  95
$$

MSZ040-058-202100-
CENTRAL MISSISSIPPI

CITY           SKY/WX    TMP DP  RH WIND       PRES   REMARKS
JACKSON INTL   CLOUDY    83  74  74 E14       29.99F THUNDER
JACKSON HAWKNS MOSUNNY   88  74  63 CALM      29.98F HX  96
MADISON        CLOUDY    75  72  88 NE8       30.00R THUNDER
MERIDIAN KEY   CLOUDY    88  75  65 W3        29.98F HX  97
MERIDIAN NAS   CLOUDY    90  73  57 CALM      29.98F HX  98
RAYMOND          N/A     90  73  58 VRB6      29.97F HX  98
VICKSBURG VKS  CLEAR     91  72  52 SW7       29.97F HX  98
$$

MSZ059>079-202100-
SOUTH MISSISSIPPI

CITY           SKY/WX    TMP DP  RH WIND       PRES   REMARKS
HATTIESBURG    MOSUNNY   88  73  61 W3        29.98F HX  95
LAUREL         MOCLDY    87  72  62 NW3       29.99F HX  93
MCCOMB         MOSUNNY   88  69  53 CALM      29.98F HX  92
NATCHEZ        NOT AVBL
PINE BELT      MOSUNNY   86  74  67 CALM      30.00F HX  94
$$

MSZ080>082-202100-
COASTAL MISSISSIPPI

CITY           SKY/WX    TMP DP  RH WIND       PRES   REMARKS
BAY ST LOUIS   PTSUNNY   86  73  66 S5        29.97F HX  93
BILOXI         CLOUDY    88  74  61 SW9       29.97F HX  96
PASCAGOULA     CLOUDY    88  72  58 W5        29.98F HX  94
GULFPORT       PTSUNNY   87  72  60 VRB6      29.98F HX  93
$$

LAZ007>009-015>016-023>026-202100-
NORTHEAST LOUISIANA

CITY           SKY/WX    TMP DP  RH WIND       PRES   REMARKS
BASTROP        FAIR      88  73  61 S6        29.96F HX  95
TALLULAH/VBURG LGT RAIN  88  73  61 CALM      29.96F HX  95
VIDALIA          N/A    N/A N/A N/A MISG      29.95F
$$




USA.gov is the U.S. government's official web portal to all federal, state and local government web resources and services.